QPF
0.00 0.00 0.01 0.02 0.03 0.04 0.04 0.02 0.01 0.00 0.00 0.00 0.00 0.00 0.00 0.00 0.00 0.00 0.00 0.00 0.00 0.00 0.00 0.00 0.00 0.00 0.00 0.00 0.00 0.00 0.00 0.00 0.00 0.00 0.00 0.00 0.00 0.00
0.01 0.01 0.02 0.05 0.05 0.05 0.04 0.02 0.02 0.02 0.01 0.01 0.01 0.00 0.00 0.00 0.00 0.00 0.00 0.00 0.00 0.00 0.00 0.00 0.00 0.00 0.00 0.00 0.00 0.00 0.00 0.00 0.00 0.00 0.00 0.00 0.00 0.00
0.01 0.02 0.03 0.06 0.06 0.06 0.05 0.04 0.03 0.02 0.02 0.02 0.02 0.01 0.00 0.00 0.00 0.00 0.00 0.00 0.00 0.00 0.00 0.00 0.00 0.00 0.00 0.00 0.00 0.00 0.00 0.00 0.00 0.00 0.00 0.00 0.00 0.00
0.04 0.06 0.09 0.11 0.08 0.05 0.06 0.06 0.04 0.03 0.02 0.03 0.02 0.02 0.01 0.00 0.00 0.00 0.00 0.00 0.00 0.00 0.00 0.00 0.00 0.00 0.00 0.00 0.00 0.00 0.00 0.00 0.00 0.00 0.00 0.00 0.00 0.00
0.04 0.07 0.11 0.14 0.14 0.12 0.10 0.08 0.07 0.04 0.03 0.04 0.03 0.03 0.02 0.01 0.00 0.00 0.00 0.00 0.00 0.00 0.00 0.00 0.00 0.00 0.00 0.00 0.00 0.00 0.00 0.00 0.00 0.00 0.00 0.00 0.00 0.00
0.05 0.07 0.10 0.12 0.14 0.16 0.13 0.11 0.09 0.06 0.05 0.04 0.04 0.03 0.02 0.01 0.01 0.00 0.00 0.00 0.00 0.00 0.00 0.00 0.01 0.01 0.01 0.01 0.00 0.00 0.00 0.00 0.00 0.00 0.00 0.00 0.00 0.00
0.03 0.03 0.04 0.06 0.08 0.09 0.09 0.08 0.06 0.04 0.04 0.04 0.04 0.04 0.03 0.02 0.01 0.01 0.00 0.00 0.01 0.01 0.02 0.01 0.02 0.03 0.03 0.02 0.01 0.01 0.00 0.00 0.00 0.00 0.00 0.00 0.00 0.00
0.00 0.00 0.01 0.01 0.01 0.02 0.02 0.02 0.03 0.03 0.04 0.05 0.04 0.03 0.03 0.03 0.02 0.02 0.01 0.02 0.02 0.03 0.03 0.03 0.06 0.06 0.06 0.04 0.03 0.01 0.01 0.00 0.00 0.00 0.00 0.00 0.00 0.00
0.00 0.00 0.00 0.00 0.00 0.00 0.00 0.00 0.01 0.01 0.02 0.03 0.03 0.03 0.03 0.03 0.03 0.02 0.02 0.02 0.02 0.02 0.02 0.04 0.08 0.10 0.13 0.09 0.05 0.02 0.01 0.01 0.01 0.00 0.00 0.00 0.00 0.00
0.00 0.00 0.00 0.00 0.00 0.00 0.00 0.00 0.00 0.00 0.01 0.01 0.02 0.03 0.02 0.02 0.02 0.03 0.02 0.02 0.02 0.02 0.03 0.05 0.08 0.11 0.15 0.13 0.10 0.06 0.03 0.03 0.03 0.02 0.02 0.01 0.01 0.00
0.00 0.00 0.00 0.00 0.00 0.00 0.00 0.00 0.00 0.00 0.00 0.00 0.01 0.02 0.02 0.02 0.02 0.02 0.02 0.02 0.03 0.06 0.05 0.06 0.06 0.07 0.09 0.09 0.08 0.06 0.05 0.05 0.06 0.07 0.06 0.05 0.03 0.02
0.00 0.00 0.00 0.00 0.00 0.00 0.00 0.00 0.00 0.00 0.00 0.00 0.00 0.00 0.00 0.01 0.01 0.01 0.01 0.01 0.01 0.02 0.03 0.04 0.04 0.03 0.03 0.03 0.02 0.03 0.03 0.05 0.07 0.08 0.07 0.06 0.05 0.04
0.00 0.00 0.00 0.00 0.00 0.00 0.00 0.00 0.00 0.00 0.00 0.00 0.00 0.00 0.00 0.00 0.00 0.00 0.00 0.00 0.00 0.00 0.00 0.00 0.01 0.01 0.01 0.00 0.00 0.00 0.01 0.01 0.03 0.03 0.03 0.03 0.05 0.07
0.00 0.00 0.00 0.00 0.00 0.00 0.00 0.00 0.00 0.00 0.00 0.00 0.00 0.00 0.00 0.00 0.00 0.00 0.00 0.00 0.00 0.00 0.00 0.00 0.00 0.00 0.00 0.00 0.00 0.00 0.00 0.00 0.00 0.00 0.00 0.01 0.03 0.05
0.00 0.00 0.00 0.00 0.00 0.00 0.00 0.00 0.00 0.00 0.00 0.00 0.00 0.00 0.00 0.00 0.00 0.00 0.00 0.00 0.00 0.00 0.00 0.00 0.00 0.00 0.00 0.00 0.00 0.00 0.00 0.00 0.00 0.00 0.00 0.00 0.00 0.00
0.00 0.00 0.00 0.00 0.00 0.00 0.00 0.00 0.00 0.00 0.00 0.00 0.00 0.00 0.00 0.00 0.00 0.00 0.00 0.00 0.00 0.00 0.00 0.00 0.00 0.00 0.00 0.00 0.00 0.00 0.00 0.00 0.00 0.00 0.00 0.00 0.00 0.00
0.00 0.00 0.00 0.00 0.00 0.00 0.00 0.00 0.00 0.00 0.00 0.00 0.00 0.00 0.00 0.00 0.00 0.00 0.00 0.00 0.00 0.00 0.00 0.00 0.00 0.00 0.00 0.00 0.00 0.00 0.00 0.00 0.00 0.00 0.00 0.00 0.00 0.00
0.00 0.00 0.00 0.00 0.00 0.00 0.00 0.00 0.00 0.00 0.00 0.00 0.00 0.00 0.00 0.00 0.00 0.00 0.00 0.00 0.00 0.00 0.00 0.00 0.00 0.00 0.00 0.00 0.00 0.00 0.00 0.00 0.00 0.00 0.00 0.00 0.00 0.00
0.01 0.00 0.00 0.00 0.00 0.00 0.00 0.00 0.00 0.00 0.00 0.00 0.00 0.00 0.00 0.00 0.00 0.00 0.00 0.00 0.00 0.00 0.00 0.00 0.00 0.00 0.00 0.00 0.00 0.00 0.00 0.00 0.00 0.00 0.00 0.00 0.00 0.00
0.01 0.01 0.00 0.00 0.00 0.00 0.00 0.00 0.00 0.00 0.00 0.00 0.00 0.00 0.00 0.00 0.00 0.00 0.00 0.00 0.00 0.00 0.00 0.00 0.00 0.00 0.00 0.00 0.00 0.00 0.00 0.00 0.00 0.00 0.00 0.00 0.00 0.00
0.00 0.00 0.00 0.00 0.00 0.00 0.00 0.00 0.00 0.00 0.00 0.00 0.00 0.00 0.00 0.00 0.00 0.00 0.00 0.00 0.00 0.00 0.00 0.00 0.00 0.00 0.00 0.00 0.00 0.00 0.00 0.00 0.00 0.00 0.00 0.00 0.00 0.00
0.00 0.00 0.00 0.00 0.00 0.00 0.00 0.00 0.00 0.00 0.00 0.00 0.00 0.00 0.00 0.00 0.00 0.00 0.00 0.00 0.00 0.00 0.00 0.00 0.00 0.00 0.00 0.00 0.00 0.00 0.00 0.00 0.00 0.00 0.00 0.00 0.00 0.00
0.00 0.00 0.00 0.00 0.00 0.00 0.00 0.00 0.00 0.00 0.00 0.00 0.00 0.00 0.00 0.00 0.00 0.00 0.00 0.00 0.00 0.00 0.00 0.00 0.00 0.00 0.00 0.00 0.00 0.00 0.00 0.00 0.00 0.00 0.00 0.00 0.00 0.00
MSLP
1014.99 1015.08 1015.20 1015.34 1015.49 1015.62 1015.72 1015.78 1015.78 1015.74 1015.64 1015.51 1015.35 1015.20 1015.08 1015.00 1015.00 1015.07 1015.23 1015.47 1015.77 1016.11 1016.47 1016.82 1017.13 1017.41 1017.65 1017.85 1018.03 1018.19 1018.34 1018.49 1018.62 1018.73 1018.79 1018.81 1018.76 1018.65
1014.51 1014.56 1014.65 1014.76 1014.89 1015.02 1015.15 1015.25 1015.33 1015.37 1015.38 1015.35 1015.29 1015.23 1015.16 1015.12 1015.12 1015.17 1015.28 1015.44 1015.66 1015.91 1016.18 1016.45 1016.70 1016.93 1017.13 1017.31 1017.47 1017.63 1017.78 1017.92 1018.05 1018.15 1018.22 1018.23 1018.18 1018.07
1014.17 1014.16 1014.20 1014.27 1014.38 1014.50 1014.63 1014.77 1014.91 1015.02 1015.11 1015.18 1015.21 1015.21 1015.19 1015.18 1015.16 1015.18 1015.23 1015.32 1015.45 1015.62 1015.80 1016.00 1016.19 1016.38 1016.55 1016.71 1016.86 1017.00 1017.15 1017.29 1017.41 1017.52 1017.59 1017.61 1017.57 1017.49
1014.03 1013.97 1013.96 1013.98 1014.04 1014.14 1014.27 1014.42 1014.59 1014.75 1014.91 1015.03 1015.13 1015.18 1015.20 1015.19 1015.17 1015.15 1015.14 1015.16 1015.21 1015.30 1015.42 1015.55 1015.69 1015.83 1015.97 1016.11 1016.24 1016.36 1016.49 1016.62 1016.73 1016.83 1016.91 1016.95 1016.95 1016.90
1014.14 1014.03 1013.97 1013.94 1013.95 1014.01 1014.10 1014.24 1014.42 1014.60 1014.79 1014.95 1015.08 1015.17 1015.20 1015.20 1015.16 1015.10 1015.05 1015.02 1015.01 1015.03 1015.09 1015.17 1015.26 1015.36 1015.47 1015.57 1015.66 1015.76 1015.85 1015.95 1016.05 1016.14 1016.22 1016.27 1016.31 1016.31
1014.47 1014.34 1014.23 1014.15 1014.10 1014.10 1014.15 1014.26 1014.40 1014.57 1014.76 1014.93 1015.07 1015.17 1015.21 1015.20 1015.15 1015.08 1014.99 1014.92 1014.87 1014.85 1014.86 1014.90 1014.95 1015.02 1015.07 1015.13 1015.18 1015.22 1015.27 1015.33 1015.39 1015.46 1015.54 1015.61 1015.68 1015.74
1014.98 1014.83 1014.69 1014.56 1014.46 1014.40 1014.39 1014.43 1014.53 1014.66 1014.82 1014.97 1015.10 1015.19 1015.23 1015.22 1015.16 1015.08 1014.98 1014.90 1014.83 1014.78 1014.77 1014.77 1014.79 1014.81 1014.83 1014.83 1014.82 1014.81 1014.80 1014.80 1014.81 1014.85 1014.91 1015.00 1015.10 1015.20
1015.58 1015.43 1015.27 1015.10 1014.95 1014.83 1014.75 1014.73 1014.76 1014.83 1014.94 1015.06 1015.16 1015.23 1015.27 1015.25 1015.20 1015.12 1015.03 1014.94 1014.87 1014.82 1014.79 1014.78 1014.77 1014.76 1014.73 1014.68 1014.62 1014.54 1014.46 1014.40 1014.36 1014.36 1014.39 1014.47 1014.59 1014.73
1016.17 1016.03 1015.87 1015.68 1015.49 1015.32 1015.18 1015.09 1015.06 1015.07 1015.12 1015.20 1015.27 1015.32 1015.34 1015.33 1015.28 1015.21 1015.14 1015.06 1015.00 1014.95 1014.92 1014.90 1014.87 1014.83 1014.76 1014.67 1014.55 1014.42 1014.28 1014.16 1014.07 1014.02 1014.02 1014.07 1014.18 1014.34
1016.68 1016.57 1016.41 1016.22 1016.01 1015.81 1015.63 1015.49 1015.40 1015.36 1015.37 1015.39 1015.43 1015.46 1015.47 1015.46 1015.42 1015.37 1015.31 1015.25 1015.20 1015.16 1015.13 1015.10 1015.06 1015.00 1014.91 1014.78 1014.62 1014.45 1014.26 1014.09 1013.95 1013.85 1013.81 1013.83 1013.92 1014.06
1017.07 1016.99 1016.85 1016.67 1016.47 1016.25 1016.06 1015.89 1015.77 1015.70 1015.66 1015.65 1015.66 1015.68 1015.68 1015.66 1015.63 1015.59 1015.54 1015.50 1015.46 1015.42 1015.40 1015.37 1015.32 1015.24 1015.14 1014.99 1014.81 1014.60 1014.39 1014.18 1014.00 1013.86 1013.78 1013.76 1013.80 1013.90
1017.33 1017.28 1017.17 1017.02 1016.84 1016.64 1016.45 1016.28 1016.15 1016.06 1016.01 1015.98 1015.97 1015.97 1015.96 1015.95 1015.92 1015.88 1015.83 1015.79 1015.76 1015.72 1015.70 1015.66 1015.61 1015.53 1015.41 1015.26 1015.07 1014.86 1014.63 1014.40 1014.19 1014.02 1013.90 1013.83 1013.82 1013.86
1017.49 1017.46 1017.39 1017.28 1017.13 1016.97 1016.80 1016.65 1016.53 1016.44 1016.38 1016.35 1016.33 1016.32 1016.31 1016.28 1016.25 1016.21 1016.16 1016.12 1016.08 1016.04 1016.00 1015.96 1015.90 1015.82 1015.71 1015.57 1015.39 1015.18 1014.95 1014.72 1014.50 1014.30 1014.14 1014.02 1013.95 1013.93
1017.58 1017.58 1017.54 1017.46 1017.35 1017.23 1017.09 1016.97 1016.87 1016.79 1016.74 1016.71 1016.69 1016.67 1016.66 1016.63 1016.59 1016.55 1016.50 1016.44 1016.39 1016.35 1016.30 1016.25 1016.19 1016.11 1016.01 1015.88 1015.71 1015.52 1015.30 1015.08 1014.86 1014.64 1014.45 1014.28 1014.15 1014.06
1017.63 1017.65 1017.64 1017.59 1017.52 1017.42 1017.32 1017.22 1017.14 1017.07 1017.03 1017.00 1016.98 1016.96 1016.95 1016.92 1016.88 1016.83 1016.78 1016.72 1016.66 1016.61 1016.56 1016.51 1016.45 1016.38 1016.29 1016.17 1016.03 1015.85 1015.66 1015.44 1015.22 1014.99 1014.77 1014.57 1014.38 1014.21
1017.69 1017.72 1017.72 1017.69 1017.63 1017.55 1017.46 1017.37 1017.30 1017.23 1017.19 1017.16 1017.14 1017.13 1017.11 1017.09 1017.05 1017.01 1016.96 1016.91 1016.86 1016.81 1016.76 1016.71 1016.66 1016.60 1016.52 1016.42 1016.30 1016.15 1015.97 1015.77 1015.55 1015.32 1015.07 1014.83 1014.59 1014.36
1017.78 1017.79 1017.79 1017.76 1017.69 1017.61 1017.52 1017.42 1017.33 1017.26 1017.20 1017.16 1017.14 1017.12 1017.10 1017.09 1017.07 1017.04 1017.01 1016.97 1016.94 1016.90 1016.87 1016.84 1016.81 1016.76 1016.70 1016.62 1016.52 1016.39 1016.22 1016.03 1015.82 1015.58 1015.32 1015.04 1014.76 1014.48
1017.89 1017.90 1017.87 1017.82 1017.73 1017.62 1017.50 1017.37 1017.25 1017.15 1017.06 1017.00 1016.96 1016.94 1016.92 1016.92 1016.91 1016.91 1016.90 1016.89 1016.89 1016.89 1016.88 1016.88 1016.87 1016.85 1016.81 1016.75 1016.67 1016.55 1016.40 1016.22 1016.01 1015.76 1015.49 1015.19 1014.88 1014.56
1018.04 1018.03 1017.98 1017.90 1017.77 1017.62 1017.45 1017.27 1017.11 1016.96 1016.83 1016.74 1016.68 1016.64 1016.62 1016.62 1016.62 1016.64 1016.66 1016.69 1016.72 1016.76 1016.79 1016.82 1016.84 1016.85 1016.84 1016.81 1016.74 1016.64 1016.51 1016.33 1016.12 1015.88 1015.60 1015.29 1014.96 1014.61
1018.24 1018.21 1018.13 1018.01 1017.84 1017.64 1017.41 1017.19 1016.97 1016.77 1016.60 1016.47 1016.37 1016.30 1016.27 1016.26 1016.27 1016.30 1016.35 1016.40 1016.47 1016.54 1016.61 1016.67 1016.73 1016.77 1016.79 1016.78 1016.74 1016.66 1016.54 1016.38 1016.17 1015.93 1015.66 1015.34 1015.00 1014.64
1018.48 1018.43 1018.33 1018.17 1017.96 1017.72 1017.45 1017.18 1016.91 1016.67 1016.45 1016.27 1016.13 1016.03 1015.97 1015.94 1015.94 1015.97 1016.02 1016.09 1016.17 1016.26 1016.36 1016.46 1016.54 1016.61 1016.66 1016.67 1016.66 1016.60 1016.50 1016.35 1016.17 1015.94 1015.68 1015.37 1015.04 1014.68
1018.73 1018.67 1018.56 1018.38 1018.16 1017.89 1017.60 1017.29 1016.99 1016.71 1016.46 1016.24 1016.06 1015.91 1015.81 1015.74 1015.71 1015.71 1015.74 1015.80 1015.88 1015.98 1016.08 1016.19 1016.30 1016.39 1016.46 1016.51 1016.51 1016.48 1016.40 1016.28 1016.12 1015.92 1015.68 1015.39 1015.08 1014.73
1018.98 1018.92 1018.80 1018.63 1018.41 1018.14 1017.85 1017.54 1017.23 1016.93 1016.65 1016.40 1016.18 1015.99 1015.83 1015.71 1015.63 1015.58 1015.57 1015.59 1015.64 1015.71 1015.81 1015.92 1016.03 1016.13 1016.22 1016.28 1016.31 1016.30 1016.26 1016.17 1016.04 1015.87 1015.65 1015.40 1015.12 1014.80
Thickness
5694 5694 5694 5695 5695 5694 5691 5688 5685 5681 5683 5686 5688 5690 5689 5688 5687 5685 5682 5679 5676 5673 5672 5671 5670 5670 5669 5669 5668 5667 5667 5666 5666 5666 5665 5665 5664 5664
5688 5689 5690 5691 5692 5691 5689 5686 5685 5682 5680 5683 5685 5687 5686 5686 5685 5683 5681 5678 5675 5674 5673 5673 5673 5673 5673 5673 5672 5671 5671 5671 5670 5669 5669 5668 5667 5666
5682 5683 5685 5688 5687 5686 5685 5684 5682 5680 5678 5680 5681 5683 5683 5683 5683 5681 5680 5678 5677 5676 5676 5676 5676 5676 5676 5676 5675 5675 5674 5674 5673 5673 5672 5671 5670 5669
5675 5677 5679 5682 5682 5682 5681 5680 5679 5678 5677 5676 5676 5678 5679 5680 5681 5680 5679 5678 5678 5678 5678 5679 5679 5680 5680 5679 5678 5678 5677 5677 5677 5676 5674 5673 5672 5671
5666 5669 5672 5675 5676 5676 5676 5675 5675 5674 5674 5673 5672 5673 5675 5676 5676 5677 5677 5677 5678 5679 5680 5681 5681 5682 5682 5682 5682 5681 5680 5679 5678 5677 5676 5675 5674 5672
5655 5658 5662 5666 5668 5670 5669 5670 5669 5668 5668 5667 5667 5668 5669 5670 5672 5672 5672 5674 5675 5677 5679 5680 5681 5681 5682 5683 5683 5683 5683 5682 5682 5680 5679 5677 5675 5673
5643 5646 5650 5655 5658 5661 5662 5663 5662 5661 5661 5661 5661 5662 5663 5664 5665 5666 5666 5668 5669 5671 5674 5675 5677 5678 5679 5681 5682 5684 5685 5684 5683 5682 5681 5678 5676 5673
5632 5634 5638 5642 5646 5649 5651 5654 5655 5655 5655 5655 5655 5656 5657 5658 5659 5659 5661 5663 5663 5666 5667 5668 5670 5671 5672 5674 5677 5681 5683 5683 5683 5682 5681 5679 5676 5673
5621 5624 5627 5630 5635 5638 5641 5643 5644 5645 5647 5648 5648 5648 5650 5651 5653 5654 5656 5658 5659 5660 5662 5662 5663 5664 5666 5667 5671 5674 5677 5678 5679 5678 5678 5677 5675 5673
5610 5612 5615 5618 5622 5626 5629 5632 5633 5635 5637 5639 5641 5641 5642 5644 5647 5647 5649 5652 5654 5654 5656 5656 5657 5658 5659 5661 5663 5666 5669 5671 5671 5672 5673 5673 5672 5671
5599 5602 5605 5607 5611 5615 5618 5620 5621 5622 5625 5629 5631 5633 5635 5637 5640 5642 5643 5645 5646 5647 5648 5650 5650 5651 5653 5654 5656 5658 5661 5663 5664 5666 5667 5668 5668 5666
5589 5592 5595 5598 5600 5603 5606 5609 5609 5609 5613 5617 5620 5622 5625 5627 5629 5631 5633 5635 5636 5638 5640 5642 5642 5644 5644 5647 5650 5652 5653 5655 5657 5659 5661 5662 5663 5662
5580 5582 5585 5588 5591 5593 5596 5597 5598 5600 5602 5606 5608 5610 5613 5615 5617 5619 5621 5624 5627 5628 5630 5632 5635 5636 5636 5637 5641 5643 5643 5645 5648 5651 5654 5655 5656 5656
5569 5571 5573 5577 5580 5583 5586 5588 5589 5591 5593 5595 5597 5598 5600 5602 5604 5607 5610 5612 5614 5616 5618 5621 5625 5627 5627 5628 5629 5632 5634 5636 5639 5643 5645 5648 5649 5650
5558 5560 5563 5566 5568 5572 5575 5577 5580 5582 5583 5584 5585 5586 5587 5588 5592 5595 5598 5600 5602 5604 5607 5610 5613 5616 5617 5617 5618 5621 5624 5627 5630 5634 5637 5639 5641 5643
5546 5549 5551 5554 5556 5559 5562 5565 5568 5570 5572 5573 5575 5575 5576 5579 5581 5584 5586 5589 5591 5592 5594 5597 5600 5604 5606 5606 5607 5609 5612 5615 5620 5624 5627 5631 5632 5634
5535 5538 5540 5542 5544 5547 5549 5552 5555 5557 5559 5562 5564 5566 5567 5569 5570 5572 5574 5577 5579 5580 5583 5586 5588 5591 5594 5596 5598 5600 5603 5606 5609 5613 5617 5621 5625 5626
5525 5527 5529 5530 5532 5534 5537 5539 5543 5545 5548 5550 5553 5555 5557 5559 5560 5561 5563 5566 5568 5570 5572 5575 5578 5582 5584 5585 5586 5590 5595 5597 5600 5604 5607 5611 5616 5620
5515 5515 5517 5520 5522 5524 5526 5529 5531 5534 5537 5540 5543 5545 5547 5548 5549 5550 5551 5553 5556 5559 5561 5563 5566 5570 5573 5575 5577 5578 5583 5587 5592 5596 5598 5600 5604 5610
5503 5504 5506 5508 5511 5513 5516 5519 5522 5525 5528 5530 5533 5535 5536 5538 5539 5540 5541 5542 5545 5547 5549 5551 5554 5558 5562 5564 5567 5569 5571 5575 5580 5584 5588 5591 5596 5601
5490 5491 5492 5495 5497 5500 5503 5506 5510 5513 5516 5520 5522 5524 5526 5528 5530 5532 5532 5531 5532 5535 5539 5542 5544 5545 5547 5550 5554 5558 5561 5563 5566 5570 5576 5581 5586 5592
5473 5474 5476 5478 5481 5484 5487 5491 5495 5499 5502 5506 5509 5512 5514 5516 5519 5521 5523 5524 5524 5526 5529 5531 5530 5531 5534 5539 5543 5545 5548 5551 5555 5559 5563 5567 5572 5578
5456 5457 5458 5460 5462 5465 5468 5472 5476 5479 5482 5487 5492 5497 5501 5504 5506 5507 5510 5512 5514 5514 5516 5517 5518 5520 5523 5527 5530 5532 5534 5537 5541 5546 5551 5555 5558 5563